Location: Gu�tanj
(46.5431°N, 14.9692°E)
Time: 14:53:04
(UTC+00:00)

USA 234 - Pass Details

Date: 03 March 2021
Orbit: 1102 x 1105 km, 123.0° (Epoch: 13 April)

Event Time Altitude Azimuth Distance (km) Brightness Sun altitude
Exits shadow 19:39:57 44° 39° (NE) 1,497 3.8 -29.6°
Maximum altitude 19:42:11 71° 329° (NNW) 1,160 3.4 -29.9°
Drops below altitude 10° 19:48:41 10° 247° (WSW) 2,958 5.9 -30.9°
Sets 19:51:10 0° 245° (WSW) 3,914 6.6 -31.3°
